Showing default

GHGSAT-C7, 56209

Orbit data source: Space-Track

GHGSAT-C7, 56209 is a payload satellite owned by GHG (CA) in SSO that was launched on Sat, 15 Apr 2023 UTC via an FALCON 9 launch vehicle from the Air Force Western Test Range (AFWTR). Payload-class satellites include a variety of spacecraft equipped with specific instruments for various scientific and technological missions. These include communications satellites like Starlink; space stations such as the ISS; scientific satellites like the Hubble; Earth observation satellites from companies like Planet Labs, Umbra, and HawkEye 360; GPS; miniature CubeSats for education and research; and military/defense satellites.

Loading next visibility...
Identifier
56209, 2023-054AH
Orbit
SSO
Last TLE update
7 hours ago
Origin
Manufacturer
UTIAS-SFL
Mission
Operational Commercial Science
Bus & Motor
NEMO-V1, Unknown motor
Mass
15 kg wet, 15 kg dry
Launch date (UTC)
2023-04-15 (2 years ago)
Launch vehicle
FALCON 9
Launch site
Air Force Western Test Range (AFWTR)
Object type
Payload
Rocket body
Debris
Shape & HBR
Box, 0.4 m
Radar Cross Section
0.100 m², Medium (>0.1 m² and < 1m²)

Expand to show TLE details & history

TLE from 7 hours ago
0 GHGSAT-C7
1 56209U 23054AH  25192.20089235  .00004874  00000-0  11865-3 0  9991
2 56209  97.3258  92.9568 0008923 182.9638 177.1557 15.41385476125720
Epoch: 2025-07-11T04:49Z
TLE epoch observation values (Epoch: 2025-07-11T04:49:17.099Z)
Latitude
-0.00006°
Longitude
91.27934°
Altitude
451.22 km
Speed
7.638 km/s
True Right ascension
06h 11m 49s
True Declination
0° 00' 00"
Sunlit
Object was in daylight at epoch
Visualization orbit readout
Latitude
57.4472°
Longitude
-76.88522°
Altitude
448.67 km
Speed
7.65 km/s
Apparent Right ascension
14h 42m 58s
Apparent Declination
17° 38' 11"
Sunlit
Object is in daylight
Visualization observer readout
Local Sidereal Time
23:52:55
Azimuth
316.69° NNW
Elevation
-20.145°
Doppler factor
1
Orbital elements
Apogee altitude
445.036 km
Perigee altitude
432.87 km
Semi-major axis
6,817.09 km
Eccentricity
0.00089
Inclination
97.3258°
RAAN
92.9568°
Arg. of periapsis
182.9638°
True anomaly
Unknown
Mean anomaly
177.1557°
Eccentric anomaly
Unknown
Mean motion
3.85607 °/min
Orbital period
93.36 mins
BSTAR
0.00011865
Loading maneuver chart data...
Loading SW <> Apogee altitude chart data...
Loading historical data...
Loading historical data...
Loading historical data...
Loading historical data...
Loading historical data...
Loading historical data...
Loading historical data...

GHGSAT-C7 Visibility forecast

Observer location: undefined°, undefined°

Span
Click to sort rows by Start time (UTC) header in descending order
Start Az.
Max El. time (UTC)
Max El. Az.
Max El.
End time (UTC)
End Az.
6 mins2025-07-11 17:24:52.095Z164.181° S2025-07-11 17:27:52.095Z15.962° NNE43.938°2025-07-11 17:30:52.095Z350.029° N
4 mins2025-07-12 06:19:52.095Z9.047° NNE2025-07-12 06:20:52.095Z0.74° NNE42.666°2025-07-12 06:23:52.095Z194.762° SSW
|